Powrót do katalogu

CZ-6A DEB

AktywnySSO
NORAD 54468·DEBRIS·🇨🇳 China

Wystrzelony Nov 11, 2022 z Taiyuan Satellite Launch Center

Loading…

Następne Przeloty (najbliższe 24 godziny)

TLE

ŚwieżeSource: Space-Track

Epoka: Sep 14, 2026, 00:38 UTC

1 54468U 22151GU  26257.02671742  .00000547  00000-0  26434-3 0  9997
2 54468  98.7522 269.4708 0053817  90.4296 270.3048 14.21811469198731

Śledź CZ-6A DEB w czasie rzeczywistym z AllMySat

Download on the App Store